TimeEST,TemperatureF,Dew PointF,Humidity,Sea Level PressureIn,VisibilityMPH,Wind Direction,Wind SpeedMPH,Gust SpeedMPH,PrecipitationIn,Events,Conditions,WindDirDegrees,DateUTC
12:15 AM,42.8,32.0,66,30.15,10.0,WNW,12.7,20.7,N/A,,Partly Cloudy,300,2012-12-15 05:15:00
12:55 AM,42.8,30.2,61,30.16,10.0,NW,17.3,-,N/A,,Clear,320,2012-12-15 05:55:00
1:15 AM,42.8,30.2,61,30.17,10.0,NW,17.3,24.2,N/A,,Clear,320,2012-12-15 06:15:00
1:35 AM,42.8,30.2,61,30.18,10.0,NW,15.0,24.2,N/A,,Clear,320,2012-12-15 06:35:00
1:55 AM,42.8,28.4,57,30.18,10.0,NNW,13.8,-,N/A,,Clear,340,2012-12-15 06:55:00
2:15 AM,42.8,30.2,61,30.18,10.0,NNW,16.1,20.7,N/A,,Clear,330,2012-12-15 07:15:00
2:55 AM,42.8,30.2,61,30.18,10.0,NNW,13.8,19.6,N/A,,Clear,340,2012-12-15 07:55:00
3:15 AM,42.8,30.2,61,30.20,10.0,NW,11.5,18.4,N/A,,Clear,320,2012-12-15 08:15:00
3:35 AM,42.8,30.2,61,30.19,10.0,NNW,12.7,-,N/A,,Clear,330,2012-12-15 08:35:00
3:55 AM,42.8,28.4,57,30.20,10.0,NNW,11.5,18.4,N/A,,Clear,330,2012-12-15 08:55:00
4:35 AM,41.0,26.6,57,30.21,10.0,NNW,19.6,23.0,N/A,,Clear,330,2012-12-15 09:35:00
4:55 AM,41.0,26.6,57,30.21,10.0,NW,17.3,24.2,N/A,,Clear,320,2012-12-15 09:55:00
5:15 AM,41.0,26.6,57,30.22,10.0,NW,20.7,26.5,N/A,,Clear,310,2012-12-15 10:15:00
5:35 AM,41.0,26.6,57,30.23,10.0,NNW,19.6,25.3,N/A,,Clear,340,2012-12-15 10:35:00
5:55 AM,41.0,26.6,57,30.24,10.0,NNW,16.1,25.3,N/A,,Clear,340,2012-12-15 10:55:00
6:15 AM,41.0,26.6,57,30.24,10.0,NNW,18.4,24.2,N/A,,Partly Cloudy,330,2012-12-15 11:15:00
7:15 AM,39.2,26.6,61,30.26,10.0,NNW,17.3,-,N/A,,Clear,330,2012-12-15 12:15:00
7:16 AM,39.2,26.6,61,30.26,10.0,NW,16.1,21.9,N/A,,Clear,320,2012-12-15 12:16:00
7:35 AM,39.2,28.4,65,30.27,10.0,NNW,16.1,21.9,N/A,,Clear,340,2012-12-15 12:35:00
9:35 AM,42.8,28.4,57,30.29,10.0,NNW,11.5,-,N/A,,Clear,340,2012-12-15 14:35:00
9:55 AM,42.8,30.2,61,30.30,10.0,North,11.5,-,N/A,,Mostly Cloudy,10,2012-12-15 14:55:00
10:35 AM,42.8,28.4,57,30.30,10.0,North,10.4,-,N/A,,Overcast,360,2012-12-15 15:35:00
10:55 AM,41.0,24.8,53,30.29,10.0,NNE,15.0,20.7,N/A,,Overcast,30,2012-12-15 15:55:00
11:15 AM,41.0,26.6,57,30.29,10.0,NNE,13.8,18.4,N/A,,Overcast,20,2012-12-15 16:15:00
11:35 AM,39.2,24.8,56,30.29,10.0,NNE,13.8,-,N/A,,Overcast,20,2012-12-15 16:35:00
11:55 AM,41.0,23.0,49,30.29,10.0,NNE,9.2,16.1,N/A,,Overcast,20,2012-12-15 16:55:00
12:15 PM,39.2,23.0,52,30.29,10.0,NNE,11.5,17.3,N/A,,Overcast,30,2012-12-15 17:15:00
12:35 PM,39.2,24.8,56,30.29,10.0,North,10.4,-,N/A,,Overcast,10,2012-12-15 17:35:00
12:55 PM,41.0,24.8,53,30.29,10.0,NNE,11.5,-,N/A,,Scattered Clouds,20,2012-12-15 17:55:00
1:35 PM,39.2,24.8,56,30.29,10.0,NNE,11.5,-,N/A,,Clear,30,2012-12-15 18:35:00
2:35 PM,37.4,26.6,65,30.29,10.0,NNE,11.5,-,N/A,,Overcast,30,2012-12-15 19:35:00
2:55 PM,37.4,24.8,60,30.29,10.0,NE,12.7,-,N/A,,Mostly Cloudy,40,2012-12-15 19:55:00
3:15 PM,37.4,24.8,60,30.29,10.0,NE,11.5,-,N/A,,Mostly Cloudy,40,2012-12-15 20:15:00
3:35 PM,37.4,24.8,60,30.31,10.0,NE,10.4,-,N/A,,Overcast,50,2012-12-15 20:35:00
4:35 PM,35.6,26.6,70,30.31,10.0,NE,10.4,-,N/A,,Overcast,50,2012-12-15 21:35:00
5:15 PM,35.6,24.8,65,30.32,10.0,NE,8.1,-,N/A,,Mostly Cloudy,50,2012-12-15 22:15:00
5:35 PM,33.8,24.8,70,30.32,10.0,ENE,11.5,-,N/A,,Scattered Clouds,60,2012-12-15 22:35:00
5:55 PM,33.8,24.8,70,30.33,10.0,NE,5.8,-,N/A,,Mostly Cloudy,40,2012-12-15 22:55:00
6:35 PM,33.8,24.8,70,30.34,10.0,ENE,8.1,-,N/A,,Overcast,60,2012-12-15 23:35:00
7:35 PM,33.8,23.0,65,30.34,10.0,ENE,9.2,-,N/A,,Scattered Clouds,60,2012-12-16 00:35:00
8:35 PM,33.8,21.2,60,30.34,10.0,ENE,8.1,-,N/A,,Clear,70,2012-12-16 01:35:00
8:55 PM,33.8,21.2,60,30.34,10.0,ENE,10.4,-,N/A,,Clear,60,2012-12-16 01:55:00
9:15 PM,33.8,21.2,60,30.35,10.0,NE,8.1,-,N/A,,Mostly Cloudy,50,2012-12-16 02:15:00
9:35 PM,33.8,21.2,60,30.35,10.0,ENE,10.4,-,N/A,,Mostly Cloudy,70,2012-12-16 02:35:00
9:55 PM,33.8,21.2,60,30.35,10.0,ENE,9.2,-,N/A,,Mostly Cloudy,70,2012-12-16 02:55:00
10:15 PM,33.8,21.2,60,30.34,10.0,ENE,9.2,-,N/A,,Mostly Cloudy,70,2012-12-16 03:15:00
10:55 PM,33.8,19.4,56,30.35,10.0,NE,8.1,-,N/A,,Mostly Cloudy,50,2012-12-16 03:55:00